Location: Joplin, MO
(37.0842°N, 94.5133°W)
Time: 19:27:07
(UTC+02:00)

Courier 1B Rocket - Pass Details

Date: 07 April 2023
Orbit: 920 x 1202 km, 28.2° (Epoch: 08 June)

Event Time Altitude Azimuth Distance (km) Brightness Sun altitude
Rises 21:16:37 0° 214° (SSW) 4,006 8.7 57.2°
Reaches altitude 10° 21:20:15 10° 198° (SSW) 3,081 8.3 56.9°
Maximum altitude 21:25:30 20° 154° (SSE) 2,448 7.7 56.4°
Drops below altitude 10° 21:30:48 10° 111° (ESE) 3,128 7.7 55.9°
Sets 21:34:31 0° 96° (E) 4,087 8.1 55.5°
